Weather History for KPGA - May, 2014

Change the Weather History Date:

Saturday, May 3, 2014

  Actual Average Record
Temperature  
Mean Temperature 72 °F -  
Max Temperature 90 °F 77 °F 90 °F (2000)
Min Temperature 55 °F 49 °F 35 °F (1967)
Cooling Degree Days 8    
Growing Degree Days 22 (Base 50)    
Moisture  
Dew Point 15 °F    
Average Humidity 12    
Maximum Humidity 24    
Minimum Humidity 4    
Precipitation  
Precipitation 0.00 in - - ()
Sea Level Pressure  
Sea Level Pressure 29.83 in    
Wind  
Wind Speed 4 mph (West)    
Max Wind Speed 9 mph    
Max Gust Speed 20 mph    
Visibility 10 miles    
Events      
Averages and records for this station are not official NWS values.
T = Trace of Precipitation, MM = Missing Value Source: NWS Daily Summary

Daily Weather History Graph

Daily Weather History Graph

Search for Another Location

Airport or City:

Trip Planner

Search our weather history database for the weather conditions in past years. The results will help you decide how hot, cold, wet, or windy it might be!

Date:

Astronomy

May. 03, 2014 Rise Set
Actual Time 5:29 AM MST 7:16 PM MST
Civil Twilight 5:01 AM MST 7:44 PM MST
Nautical Twilight 4:27 AM MST 8:18 PM MST
Astronomical Twilight 3:51 AM MST 8:54 PM MST
Moon 9:03 AM MST (5/3) 11:24 PM MST (5/3)
Length of Visible Light 14h 43m
Length of Day
13h 47m
Waxing Crescent, 20% of the Moon is Illuminated
May 3
Waxing Crescent
May 6
First Quarter
May 14
Full
May 21
Last Quarter
May 28
New

Hourly Weather History & Observations

Time (MST) Temp. Dew Point Humidity Pressure Visibility Wind Dir Wind Speed Gust Speed Precip Events Conditions
12:53 AM 64.0 °F 19.9 °F 18% 29.87 in 10.0 mi SW 3.5 mph - N/A   Clear
1:53 AM 61.0 °F 19.9 °F 21% 29.87 in 10.0 mi Calm Calm - N/A   Clear
2:53 AM 61.0 °F 19.0 °F 20% 29.87 in 10.0 mi Calm Calm - N/A   Clear
3:53 AM 57.0 °F 17.1 °F 21% 29.88 in 10.0 mi SE 4.6 mph - N/A   Clear
4:53 AM 55.9 °F 19.0 °F 24% 29.89 in 10.0 mi Calm Calm - N/A   Clear
5:53 AM 57.0 °F 19.0 °F 23% 29.90 in 10.0 mi West 3.5 mph - N/A   Clear
6:53 AM 64.0 °F 18.0 °F 17% 29.91 in 10.0 mi NNE 3.5 mph - N/A   Clear
7:53 AM 66.0 °F 19.0 °F 17% 29.92 in 10.0 mi NNW 3.5 mph - N/A   Clear
8:53 AM 68.0 °F 21.9 °F 17% 29.93 in 10.0 mi NNE 4.6 mph - N/A   Clear
9:53 AM 70.0 °F 19.0 °F 14% 29.93 in 10.0 mi NNW 4.6 mph - N/A   Clear
10:53 AM 75.9 °F 19.0 °F 12% 29.90 in 10.0 mi NE 5.8 mph - N/A   Clear
11:53 AM 80.1 °F 17.1 °F 9% 29.87 in 10.0 mi Variable 5.8 mph - N/A   Clear
12:53 PM 82.9 °F 14.0 °F 8% 29.83 in 10.0 mi Variable 6.9 mph - N/A   Clear
1:53 PM 84.9 °F 14.0 °F 7% 29.81 in 10.0 mi Variable 6.9 mph - N/A   Clear
2:53 PM 88.0 °F 14.0 °F 6% 29.76 in 10.0 mi Calm Calm - N/A   Clear
3:53 PM 89.1 °F 12.0 °F 6% 29.75 in 10.0 mi WNW 9.2 mph 17.3 mph N/A   Clear
4:53 PM 88.0 °F 12.0 °F 6% 29.74 in 10.0 mi SW 9.2 mph - N/A   Clear
5:53 PM 87.1 °F 12.0 °F 6% 29.73 in 10.0 mi Variable 5.8 mph - N/A   Clear
6:53 PM 84.0 °F 12.0 °F 7% 29.73 in 10.0 mi WSW 5.8 mph 19.6 mph N/A   Clear
7:53 PM 82.0 °F 10.0 °F 7% 29.74 in 10.0 mi WSW 5.8 mph - N/A   Clear
8:53 PM 80.1 °F 10.9 °F 7% 29.75 in 10.0 mi WSW 6.9 mph - N/A   Clear
9:53 PM 75.9 °F 10.9 °F 8% 29.78 in 10.0 mi SSW 4.6 mph - N/A   Clear
10:53 PM 75.9 °F 10.9 °F 8% 29.78 in 10.0 mi SW 8.1 mph - N/A   Clear
11:53 PM 73.9 °F 10.9 °F 9% 29.78 in 10.0 mi SSW 6.9 mph - N/A   Clear